370  
ASUS41 KPHI 260712  
RWRPHI  
 
REGIONAL WEATHER ROUNDUP  
NATIONAL WEATHER SERVICE MOUNT HOLLY NJ  
300 AM EDT FRI MAY 26 2017  
 
NOTE: "FAIR" INDICATES FEW OR NO CLOUDS BELOW 12,000 FEET WITH NO  
SIGNIFICANT WEATHER AND/OR S TO VISIBILITY
.  
 
* = STATION DOES NOT REPORT PRECIPITATION (E.G. RAIN, SNOW, ETC.)  
OR FOG.
 
 
NJZ015>026-260800-  
SOUTHERN NEW JERSEY  
 
CITY SKY/WX TMP DP RH WIND PRES REMARKS
 
POMONA LGT RAIN 59 57 93 SW3 29.51S  
WILDWOOD* MOCLDY 61 58 90 W12G20 29.55R  
MILLVILLE CLOUDY 60 60 100 W12 29.52R  
WRIGHTSTOWN CLOUDY 58 56 96 SW12 29.48R  
MOUNT HOLLY CLOUDY 57 56 96 W5 29.51R  
TRENTON CLOUDY 57 56 96 W5 29.50R  
 

 
NJZ001>014-260800-  
NORTHERN NEW JERSEY  
 
CITY SKY/WX TMP DP RH WIND PRES REMARKS
 
SUSSEX CLOUDY 56 54 93 CALM 29.51S  
ANDOVER* N/A 55 53 93 N6 29.50R  
MORRISTOWN CLOUDY 57 57 100 CALM 29.47S  
NEWARK LGT RAIN 56 56 100 N9 29.46R  
TETERBORO CLOUDY 57 56 96 N6 29.45S  
CALDWELL CLOUDY 58 55 90 NE3 29.47S  
SOMERVILLE CLOUDY 58 57 97 CALM 29.48R  
ALLAIRE* CLOUDY 57 56 96 SW8 29.50R  
TOMS RIVER* CLOUDY 57 55 94 W6 29.50R  
 

 
PAZ043-044-047-054-055-060>062-066>071-260800-  
EASTERN PENNSYLVANIA  
 
CITY SKY/WX TMP DP RH WIND PRES REMARKS
 
PHILADELPHIA LGT RAIN 59 57 93 W8 29.53R  
NORTH PHILA CLOUDY 59 57 93 W7 29.52R  
BLUE BELL* CLOUDY 55 55 100 CALM 29.53R  
DOYLESTOWN CLOUDY 56 56 100 SW6 29.50R  
QUAKERTOWN* CLOUDY 55 55 100 W6 29.52R  
PERKASIE* LGT RAIN 55 55 100 W5 29.53R  
POTTSTOWN CLOUDY 56 55 97 CALM 29.54R  
LANCASTER CLOUDY 59 58 96 W8 29.54R  
COATESVILLE MOCLDY 59 57 94 NW13 29.55R  
READING CLOUDY 61 60 97 W5 29.51S  
ALLENTOWN CLOUDY 59 56 89 W5 29.51R  
MOUNT POCONO CLOUDY 52 52 100 NW3 29.51S  
HAZLETON CLOUDY 55 54 94 CALM 29.56R  
LEHIGHTON CLOUDY 57 57 100 CALM 29.52R  
WILKES BARRE LGT RAIN 58 56 93 CALM 29.51S  
 

 
DEZALL-MDZ008-012-015-019-020-260800-  
DELAWARE AND EASTERN MARYLAND  
 
CITY SKY/WX TMP DP RH WIND PRES REMARKS
 
WILMINGTON CLOUDY 60 59 96 W8 29.54R  
DOVER CLEAR 60 60 100 SW9 29.54R  
GEORGETOWN CLEAR 60 57 89 W8 29.58R  
EASTON CLEAR 61 58 91 W5 29.62R  
ABERDEEN MOCLDY 57 57 98 SW3 29.56R  
PATUXENT CLEAR 59 58 96 W13 29.60R  
OCEAN CITY CLEAR 60 57 89 W10 29.59R  
WALLOPS ISLAND CLEAR 62 58 86 W9 29.62R  
CAMBRIDGE CLEAR 59 57 94 SW5 29.59S  
SALISBURY CLEAR 60 60 100 W9 29.59R  
 

 
PAZ001-021-NYZ056-072-MDZ011-DCZ001-260800-  
OTHER NEARBY LOCATIONS  
 
CITY SKY/WX TMP DP RH WIND PRES REMARKS
 
HARRISBURG PTCLDY 58 57 97 NW8 29.54R  
STATE COLLEGE CLOUDY 56 55 96 CALM 29.58R  
WILLIAMSPORT CLOUDY 59 57 93 W6 29.53R  
BINGHAMTON CLOUDY 53 52 96 NE3 29.53S  
NEW YORK CITY LGT RAIN 57 56 96 CALM 29.49R  
BALTIMORE PTCLDY 58 58 100 W10 29.57R  
WASHINGTON DC PTCLDY 59 57 93 S7 29.61R  
 

 
 
 
CLICK HERE TO GO TO PREVIOUS BULLETINS.

The Nexlab PA Page
The Nexlab NJ Page
The Nexlab DE Page
The Nexlab MD Page Main Text Page